Aberdeen, SD

7:03 AM CDT on May 25, 2017 (GMT -0500)
Aberdeen Regional

Weather History for KABR - April, 2014

Change the Weather History Date:

Wednesday, April 9, 2014

  Actual Average Record
Temperature  
Mean Temperature 56 °F 41 °F  
Max Temperature 80 °F 54 °F 91 °F (1977)
Min Temperature 32 °F 29 °F 8 °F (1997)
Degree Days  
Heating Degree Days 9 24  
Month to date heating degree days 261 232  
Since 1 July heating degree days 8642 7783  
Cooling Degree Days 0 0  
Month to date cooling degree days 0 0  
Year to date cooling degree days 0 0  
Growing Degree Days 6 (Base 50)    
Moisture  
Dew Point 33 °F    
Average Humidity 51    
Maximum Humidity 82    
Minimum Humidity 19    
Precipitation  
Precipitation T in 0.05 in 0.90 in (1904)
Month to date precipitation 0.09 0.42  
Year to date precipitation 1.30 2.60  
Snow  
Snow 0.00 in 0.10 in 4.00 in (1904)
Month to date snowfall T 1.3  
Since 1 July snowfall 32.5 36.3  
Snow Depth 0.00 in    
Sea Level Pressure  
Sea Level Pressure 29.67 in    
Wind  
Wind Speed 15 mph (SW)    
Max Wind Speed 39 mph    
Max Gust Speed 47 mph    
Visibility 10 miles    
Events      
T = Trace of Precipitation, MM = Missing Value Source: NWS Daily Summary

Daily Weather History Graph

Daily Weather History Graph

Search for Another Location

Airport or City:

Trip Planner

Search our weather history database for the weather conditions in past years. The results will help you decide how hot, cold, wet, or windy it might be!

Date:

Astronomy

Apr. 09, 2014 Rise Set
Actual Time 6:59 AM CDT 8:12 PM CDT
Civil Twilight 6:28 AM CDT 8:42 PM CDT
Nautical Twilight 5:52 AM CDT 9:19 PM CDT
Astronomical Twilight 5:13 AM CDT 9:58 PM CDT
Moon 2:47 PM CDT (4/9) 4:04 AM CDT (4/9)
Length of Visible Light 14h 14m
Length of Day
13h 13m
Waxing Gibbous, 72% of the Moon is Illuminated
Apr 9
Waxing Gibbous
Apr 15
Full
Apr 22
Last Quarter
Apr 29
New
May 6
First Quarter

Hourly Weather History & Observations

Time (CDT) Temp. Windchill Dew Point Humidity Pressure Visibility Wind Dir Wind Speed Gust Speed Precip Events Conditions
12:53 AM 37.9 °F 30.5 °F 28.0 °F 68% 29.86 in 10.0 mi South 11.5 mph - N/A   Clear
1:53 AM 37.0 °F 28.9 °F 28.0 °F 70% 29.84 in 10.0 mi South 12.7 mph - N/A   Clear
2:53 AM 34.0 °F 25.5 °F 27.0 °F 75% 29.82 in 10.0 mi South 11.5 mph - N/A   Clear
3:53 AM 33.1 °F 24.9 °F 27.0 °F 78% 29.78 in 10.0 mi South 10.4 mph - N/A   Clear
4:53 AM 32.0 °F 22.5 °F 27.0 °F 82% 29.76 in 10.0 mi South 12.7 mph - N/A   Clear
5:53 AM 32.0 °F 23.6 °F 27.0 °F 82% 29.73 in 10.0 mi South 10.4 mph - N/A   Clear
6:53 AM 32.0 °F 23.6 °F 27.0 °F 82% 29.72 in 10.0 mi South 10.4 mph - N/A   Clear
7:53 AM 33.1 °F 25.5 °F 28.0 °F 82% 29.72 in 10.0 mi South 9.2 mph - N/A   Clear
8:53 AM 39.9 °F 33.9 °F 30.9 °F 70% 29.71 in 10.0 mi South 9.2 mph - N/A   Clear
9:53 AM 45.0 °F 39.3 °F 33.1 °F 63% 29.69 in 10.0 mi SSW 11.5 mph - N/A   Clear
10:53 AM 54.0 °F - 37.0 °F 53% 29.66 in 10.0 mi SW 11.5 mph - N/A   Clear
11:53 AM 66.9 °F - 39.0 °F 36% 29.63 in 10.0 mi SW 12.7 mph - N/A   Clear
12:53 PM 73.0 °F - 37.0 °F 27% 29.60 in 10.0 mi SW 13.8 mph - N/A   Clear
1:53 PM 77.0 °F - 36.0 °F 23% 29.57 in 10.0 mi WSW 18.4 mph 24.2 mph N/A   Clear
2:53 PM 78.1 °F - 32.0 °F 19% 29.54 in 10.0 mi WSW 24.2 mph 29.9 mph N/A   Clear
3:53 PM 79.0 °F - 32.0 °F 18% 29.51 in 10.0 mi WSW 18.4 mph 31.1 mph N/A   Clear
4:53 PM 79.0 °F - 34.0 °F 20% 29.49 in 10.0 mi West 21.9 mph - N/A   Clear
5:53 PM 75.0 °F - 39.0 °F 27% 29.51 in 10.0 mi WSW 15.0 mph - 0.00 in   Partly Cloudy
6:53 PM 75.0 °F - 34.0 °F 22% 29.52 in 10.0 mi WNW 20.7 mph 25.3 mph N/A   Partly Cloudy
7:53 PM 64.0 °F - 37.9 °F 38% 29.59 in 10.0 mi NNW 19.6 mph - N/A   Scattered Clouds
8:53 PM 57.9 °F - 39.9 °F 51% 29.64 in 10.0 mi NNW 20.7 mph 27.6 mph N/A   Mostly Cloudy
9:53 PM 53.1 °F - 37.9 °F 57% 29.70 in 10.0 mi North 24.2 mph 33.4 mph 0.00 in   Overcast
10:53 PM 48.9 °F - 37.9 °F 66% 29.72 in 10.0 mi North 18.4 mph - 0.00 in   Overcast
11:53 PM 48.0 °F - 37.0 °F 66% 29.77 in 10.0 mi North 10.4 mph - N/A   Mostly Cloudy